• Join FlightAware (Why Join?)
  • Login
  • US Flag 
08:57PM EST


 

Airport Tracker/Info


-or-


 

Live Flight TrackerFlight Track Log ✈ FDX1425 ✈ 19-Jun-2013 ✈ KMEM - KIAH

Flight Track Log - Related Links

Times and Time Zones

All times are in EDT time to prevent confusion due to time zone crossing. See the FDX1425 flight status page for this flight to view local times or setup timezone preferences in your user account.

Time Position Orientation Groundspeed Altitude Reporting Facility
EDT Latitude Longitude Course Direction KTS MPH feet Rate Location/Type
05:05AM 35.0167 -89.9833 180° South 180 207 900  Level KMEM
05:07AM 34.9500 -89.9833 180° South 234 269 3,000 2,160 Climbing KMEM
05:08AM 34.8667 -90.0000 189° South 293 337 6,000 3,060 Climbing KMEM
05:09AM 34.8167 -90.0667 228° Southwest 291 335 8,900 2,160 Climbing KMEM
05:10AM 34.7567 -90.1497 229° Southwest 325 374 10,400 1,620 Climbing Memphis Center
05:11AM 34.6736 -90.2536 226° Southwest 367 422 12,400 2,100 Climbing Memphis Center
05:12AM 34.5839 -90.3394 218° Southwest 402 463 14,700 2,100 Climbing Memphis Center
05:13AM 34.4900 -90.4225 216° Southwest 422 486 16,600 1,980 Climbing Memphis Center
05:14AM 34.3958 -90.5106 218° Southwest 433 498 18,700 1,860 Climbing Memphis Center
05:15AM 34.2978 -90.6036 218° Southwest 438 504 20,400 1,620 Climbing Memphis Center
05:16AM 34.1972 -90.6961 217° Southwest 449 517 22,000 1,500 Climbing Memphis Center
05:17AM 34.0969 -90.7886 217° Southwest 455 524 23,500 1,500 Climbing Memphis Center
05:18AM 33.9942 -90.8833 217° Southwest 472 543 25,000 1,500 Climbing Memphis Center
05:19AM 33.8875 -90.9778 216° Southwest 477 549 26,500 1,440 Climbing Memphis Center
05:20AM 33.7825 -91.0744 217° Southwest 482 555 27,900 1,380 Climbing Memphis Center
05:22AM 33.5603 -91.2794 218° Southwest 494 568 31,100 1,500 Climbing Fort Worth Center
05:23AM 33.4625 -91.3733 219° Southwest 478 550 32,900 1,440 Climbing Fort Worth Center
05:24AM 33.3583 -91.4625 216° Southwest 478 550 34,000 1,080 Climbing Fort Worth Center
05:25AM 33.2461 -91.5619 217° Southwest 462 532 35,100 840 Climbing Fort Worth Center
05:26AM 33.1500 -91.6478 217° Southwest 471 542 35,700 420 Climbing Fort Worth Center
05:27AM 33.0475 -91.7386 217° Southwest 478 550 36,000 -300 Climbing Fort Worth Center
05:32AM 32.4622 -92.2533 217° Southwest 467 537 34,000 -360 Descending FlightAware ADS-B
05:33AM 32.3876 -92.3383 224° Southwest 466 536 34,000  Level FlightAware ADS-B
05:37AM 31.9986 -92.7799 224° Southwest 471 542 34,000  Level FlightAware ADS-B
05:38AM 31.9511 -92.8351 225° Southwest 472 543 34,000 -180 Level FlightAware ADS-B
05:42AM 31.5314 -93.3056 224° Southwest 465 535 33,200 -240 Descending FlightAware ADS-B
05:43AM 31.4837 -93.3580 223° Southwest 466 536 32,900 -780 Descending FlightAware ADS-B
05:45AM 31.3304 -93.5287 224° Southwest 474 545 31,600 -900 Descending FlightAware ADS-B
05:45AM 31.2747 -93.5903 224° Southwest 474 545 30,900 -1,620 Descending Houston Center
05:51AM 30.7387 -94.1786 224° Southwest 427 491 21,300 -1,740 Descending FlightAware ADS-B
05:51AM 30.6958 -94.2253 223° Southwest 420 483 20,200 -2,340 Descending FlightAware ADS-B
05:52AM 30.6531 -94.2710 223° Southwest 413 475 19,000 -2,160 Descending FlightAware ADS-B
05:52AM 30.6175 -94.3098 223° Southwest 405 466 18,200 -2,160 Descending FlightAware ADS-B
05:53AM 30.5762 -94.3542 223° Southwest 398 458 17,000 -2,340 Descending FlightAware ADS-B
05:53AM 30.5360 -94.3977 223° Southwest 386 444 15,900 -2,220 Descending FlightAware ADS-B
05:54AM 30.5124 -94.4246 224° Southwest 373 429 15,200 -2,100 Descending FlightAware ADS-B
05:54AM 30.4739 -94.4646 222° Southwest 367 422 14,200 -2,040 Descending FlightAware ADS-B
05:55AM 30.4441 -94.4959 222° Southwest 362 417 13,400 -2,160 Descending FlightAware ADS-B
05:55AM 30.4070 -94.5350 222° Southwest 355 409 12,300 -1,800 Descending FlightAware ADS-B
05:56AM 30.3736 -94.5728 224° Southwest 317 365 11,600 -1,380 Descending FlightAware ADS-B
05:56AM 30.3463 -94.6031 224° Southwest 292 336 11,000 -1,320 Descending FlightAware ADS-B
05:57AM 30.2864 -94.6648 222° Southwest 281 323 9,700 -1,320 Descending FlightAware ADS-B
05:57AM 30.2720 -94.6803 223° Southwest 280 322 9,400 -1,440 Descending FlightAware ADS-B
05:58AM 30.2616 -94.6916 223° Southwest 280 322 9,100 -1,320 Descending FlightAware ADS-B
05:58AM 30.2284 -94.7276 222° Southwest 282 325 8,400 -1,260 Descending FlightAware ADS-B
05:58AM 30.2244 -94.7314 219° Southwest 283 326 8,300 -1,200 Descending FlightAware ADS-B
05:58AM 30.2170 -94.7360 207° Southwest 285 328 8,200 -720 Descending FlightAware ADS-B
05:59AM 30.1929 -94.7436 192° South 284 327 8,000 -180 Descending FlightAware ADS-B
06:00AM 30.1196 -94.7636 194° South 261 300 8,000  Level FlightAware ADS-B
06:00AM 30.1044 -94.7676 193° South 242 278 8,000 -120 Level FlightAware ADS-B
06:00AM 30.0609 -94.7783 193° South 240 276 7,900 -480 Descending FlightAware ADS-B
06:01AM 30.0488 -94.7815 193° South 240 276 7,600 -1,140 Descending FlightAware ADS-B
06:01AM 30.0210 -94.7885 193° South 237 273 7,200 -1,080 Descending FlightAware ADS-B
06:01AM 30.0171 -94.7894 191° South 236 272 7,100 -1,740 Descending FlightAware ADS-B
06:01AM 30.0135 -94.7911 202° Southwest 235 270 7,000 -2,040 Descending FlightAware ADS-B
06:01AM 30.0059 -94.7964 214° Southwest 237 273 6,700 -2,040 Descending FlightAware ADS-B
06:01AM 30.0028 -94.7999 224° Southwest 237 273 6,600 -1,500 Descending FlightAware ADS-B
06:01AM 30.0004 -94.8038 235° Southwest 236 272 6,500 -1,620 Descending FlightAware ADS-B
06:02AM 29.9871 -94.8237 232° Southwest 235 270 6,000 -1,260 Descending FlightAware ADS-B
06:02AM 29.9717 -94.8468 232° Southwest 216 249 5,600 -1,080 Descending FlightAware ADS-B
06:02AM 29.9700 -94.8495 234° Southwest 214 246 5,500 -1,020 Descending FlightAware ADS-B
06:02AM 29.9684 -94.8524 238° Southwest 213 245 5,500 -900 Level FlightAware ADS-B
06:02AM 29.9667 -94.8564 244° Southwest 209 241 5,400 -780 Descending FlightAware ADS-B
06:02AM 29.9658 -94.8606 256° West 206 237 5,400 -780 Level FlightAware ADS-B
06:02AM 29.9654 -94.8650 264° West 203 234 5,300 -780 Descending FlightAware ADS-B
06:03AM 29.9655 -94.8692 272° West 200 230 5,300 -780 Level FlightAware ADS-B
06:03AM 29.9660 -94.8735 278° West 198 228 5,200 -780 Descending FlightAware ADS-B
06:03AM 29.9667 -94.8776 281° West 195 224 5,200 -600 Level FlightAware ADS-B
06:03AM 29.9682 -94.8846 284° West 190 219 5,100 -720 Descending FlightAware ADS-B
06:03AM 29.9703 -94.8942 284° West 181 208 5,000 -420 Descending FlightAware ADS-B
06:03AM 29.9739 -94.9128 282° West 176 203 4,900 -600 Descending FlightAware ADS-B
06:04AM 29.9753 -94.9248 278° West 176 203 4,700 -660 Descending FlightAware ADS-B
06:04AM 29.9763 -94.9389 275° West 175 201 4,600 -420 Descending FlightAware ADS-B
06:04AM 29.9772 -94.9662 272° West 176 203 4,400 -480 Descending FlightAware ADS-B
06:05AM 29.9773 -94.9879 271° West 175 201 4,200 -300 Descending FlightAware ADS-B
06:06AM 29.9773 -95.0455 270° West 178 205 4,000 -180 Descending FlightAware ADS-B
06:06AM 29.9774 -95.0606 270° West 178 205 4,000 -300 Level FlightAware ADS-B
06:06AM 29.9776 -95.0834 271° West 178 205 3,800 -780 Descending FlightAware ADS-B
06:07AM 29.9776 -95.0978 270° West 179 206 3,500 -1,200 Descending FlightAware ADS-B
06:07AM 29.9775 -95.1131 270° West 177 204 3,200 -900 Descending FlightAware ADS-B
06:07AM 29.9775 -95.1478 270° West 164 189 2,700 -900 Descending FlightAware ADS-B
06:08AM 29.9776 -95.1619 270° West 164 189 2,400 -1,080 Descending FlightAware ADS-B
06:08AM 29.9775 -95.1780 270° West 152 175 2,100 -900 Descending FlightAware ADS-B
06:08AM 29.9775 -95.1904 270° West 142 163 1,900 -720 Descending FlightAware ADS-B
06:09AM 29.9776 -95.2049 270° West 132 152 1,700 -720 Descending FlightAware ADS-B
06:09AM 29.9775 -95.2162 269° West 133 153 1,500 -780 Descending FlightAware ADS-B
06:09AM 29.9775 -95.2275 270° West 131 151 1,300 -600 Descending FlightAware ADS-B
06:09AM 29.9776 -95.2381 271° West 132 152 1,200 -600 Descending FlightAware ADS-B
06:10AM 29.9776 -95.2488 270° West 134 154 1,000 -780 Descending FlightAware ADS-B
06:10AM 29.9776 -95.2610 270° West 134 154 800 -660 Descending FlightAware ADS-B
06:10AM 29.9776 -95.2696 270° West 136 157 700 -720 Descending FlightAware ADS-B
06:10AM 29.9776 -95.2806 270° West 137 158 500 -840 Descending FlightAware ADS-B
06:11AM 29.9776 -95.2917 270° West 141 162 300 -840 Descending FlightAware ADS-B
06:11AM 29.9776 -95.3033 270° West 145 167 100 -840 Descending FlightAware ADS-B